Location: Boiro
(42.6475°N, 8.8834°W)
Time: 08:55:40
(UTC+01:00)

Vanguard 3 - Pass Details

Date: 04 December 2021
Orbit: 508 x 3260 km, 33.3° (Epoch: 24 January)

Event Time Altitude Azimuth Distance (km) Brightness Sun altitude
Rises 11:59:47 0° 277° (W) 6,318 11.4 22.1°
Reaches altitude 10° 12:06:31 10° 261° (W) 4,717 11.0 22.5°
Maximum altitude 12:13:10 16° 229° (SW) 3,538 10.8 22.9°
Drops below altitude 10° 12:18:16 10° 194° (SSW) 3,435 11.5 23.2°
Sets 12:22:00 0° 173° (S) 3,951 12.1 23.4°
